EN

Hourly Weather Al `Ula

Today, 28 January, Thursday

Time Temperature Precipitation Wind Pressure Humidity
00:00 +17°C° 0 mm 3 mps 692 mmHg 89%
01:00 +16°C° 0 mm 2 mps 692 mmHg 90%
02:00 +16°C° 0 mm 2 mps 691 mmHg 92%
03:00 +15°C° 0 mm 2 mps 691 mmHg 93%
04:00 +14°C° 0 mm 2 mps 691 mmHg 93%
05:00 +13°C° 0 mm 1 mps 691 mmHg 94%
06:00 +13°C° 0 mm 1 mps 691 mmHg 94%
07:00 +14°C° 0 mm 1 mps 691 mmHg 86%
08:00 +14°C° 0 mm 0 mps 692 mmHg 79%
09:00 +15°C° 0 mm 0 mps 693 mmHg 72%
10:00 +18°C° 0 mm 1 mps 693 mmHg 57%
11:00 +19°C° 0 mm 2 mps 693 mmHg 43%
12:00 +21°C° 0 mm 3 mps 693 mmHg 28%
13:00 +22°C° 0 mm 4 mps 693 mmHg 23%
14:00 +23°C° 0 mm 6 mps 693 mmHg 19%
15:00 +26°C° 0 mm 7 mps 692 mmHg 14%
16:00 +23°C° 0 mm 7 mps 692 mmHg 17%
17:00 +22°C° 0 mm 6 mps 692 mmHg 20%
18:00 +21°C° 0 mm 5 mps 692 mmHg 24%
19:00 +19°C° 0 mm 4 mps 692 mmHg 31%
20:00 +18°C° 0 mm 4 mps 692 mmHg 38%
21:00 +16°C° 0 mm 3 mps 692 mmHg 45%
22:00 +15°C° 0 mm 2 mps 692 mmHg 50%
23:00 +14°C° 0 mm 2 mps 692 mmHg 55%

Tomorrow, 29 January, Friday

Time Temperature Precipitation Wind Pressure Humidity
00:00 +13°C° 0 mm 1 mps 692 mmHg 60%
01:00 +13°C° 0 mm 1 mps 692 mmHg 61%
02:00 +12°C° 0 mm 1 mps 691 mmHg 62%
03:00 +12°C° 0 mm 1 mps 691 mmHg 63%
04:00 +10°C° 0 mm 2 mps 691 mmHg 65%
05:00 +10°C° 0 mm 2 mps 692 mmHg 67%
06:00 +10°C° 0 mm 3 mps 692 mmHg 69%
07:00 +11°C° 0 mm 4 mps 692 mmHg 66%
08:00 +10°C° 0 mm 5 mps 693 mmHg 63%
09:00 +11°C° 0 mm 6 mps 693 mmHg 60%
10:00 +14°C° 0 mm 7 mps 693 mmHg 50%
11:00 +15°C° 0 mm 8 mps 694 mmHg 40%
12:00 +17°C° 0 mm 9 mps 694 mmHg 30%
13:00 +17°C° 0 mm 9 mps 694 mmHg 29%
14:00 +17°C° 0 mm 9 mps 693 mmHg 28%
15:00 +17°C° 0 mm 8 mps 693 mmHg 27%
16:00 +16°C° 0 mm 7 mps 693 mmHg 33%
17:00 +15°C° 0 mm 7 mps 693 mmHg 38%
18:00 +13°C° 0 mm 6 mps 693 mmHg 43%
19:00 +12°C° 0 mm 5 mps 693 mmHg 50%
20:00 +11°C° 0 mm 4 mps 693 mmHg 57%
21:00 +10°C° 0 mm 3 mps 694 mmHg 64%
22:00 +9°C° 0 mm 2 mps 694 mmHg 66%
23:00 +8°C° 0 mm 2 mps 694 mmHg 69%

Day after tomorrow, 30 January, Saturday

Time Temperature Precipitation Wind Pressure Humidity
00:00 +9°C° 0 mm 1 mps 694 mmHg 71%
01:00 +8°C° 0 mm 1 mps 694 mmHg 70%
02:00 +8°C° 0 mm 1 mps 694 mmHg 69%
03:00 +8°C° 0 mm 1 mps 694 mmHg 68%
04:00 +6°C° 0 mm 2 mps 694 mmHg 67%
05:00 +6°C° 0 mm 2 mps 694 mmHg 67%
06:00 +5°C° 0 mm 2 mps 694 mmHg 66%
07:00 +6°C° 0 mm 2 mps 695 mmHg 62%
08:00 +7°C° 0 mm 3 mps 695 mmHg 58%
09:00 +8°C° 0 mm 3 mps 696 mmHg 53%
10:00 +9°C° 0 mm 3 mps 696 mmHg 47%
11:00 +11°C° 0 mm 3 mps 696 mmHg 42%
12:00 +13°C° 0 mm 3 mps 696 mmHg 36%
13:00 +14°C° 0 mm 3 mps 695 mmHg 32%
14:00 +16°C° 0 mm 3 mps 695 mmHg 28%
15:00 +17°C° 0 mm 2 mps 695 mmHg 24%
16:00 +17°C° 0 mm 3 mps 695 mmHg 24%
17:00 +16°C° 0 mm 3 mps 695 mmHg 25%
18:00 +16°C° 0 mm 3 mps 694 mmHg 25%
19:00 +14°C° 0 mm 2 mps 694 mmHg 28%
20:00 +13°C° 0 mm 2 mps 694 mmHg 31%
21:00 +12°C° 0 mm 2 mps 694 mmHg 34%
22:00 +10°C° 0 mm 2 mps 694 mmHg 35%
23:00 +10°C° 0 mm 2 mps 694 mmHg 36%

31 January, Sunday

Time Temperature Precipitation Wind Pressure Humidity
00:00 +10°C° 0 mm 1 mps 694 mmHg 37%
01:00 +10°C° 0 mm 1 mps 693 mmHg 38%
02:00 +9°C° 0 mm 1 mps 693 mmHg 39%
03:00 +9°C° 0 mm 1 mps 693 mmHg 40%
04:00 +8°C° 0 mm 1 mps 692 mmHg 40%
05:00 +8°C° 0 mm 1 mps 692 mmHg 41%
06:00 +6°C° 0 mm 0 mps 692 mmHg 42%
07:00 +9°C° 0 mm 0 mps 693 mmHg 37%
08:00 +11°C° 0 mm 0 mps 693 mmHg 32%
09:00 +13°C° 0 mm 0 mps 694 mmHg 27%
10:00 +16°C° 0 mm 1 mps 694 mmHg 23%
11:00 +19°C° 0 mm 1 mps 695 mmHg 20%
12:00 +19°C° 0 mm 2 mps 695 mmHg 16%
13:00 +21°C° 0 mm 1 mps 695 mmHg 15%
14:00 +23°C° 0 mm 1 mps 694 mmHg 13%
15:00 +24°C° 0 mm 1 mps 694 mmHg 11%
16:00 +23°C° 0 mm 1 mps 694 mmHg 12%
17:00 +21°C° 0 mm 2 mps 694 mmHg 13%
18:00 +20°C° 0 mm 2 mps 694 mmHg 14%
19:00 +18°C° 0 mm 3 mps 694 mmHg 15%
20:00 +17°C° 0 mm 3 mps 694 mmHg 16%
21:00 +16°C° 0 mm 3 mps 694 mmHg 17%
22:00 +14°C° 0 mm 3 mps 694 mmHg 18%
23:00 +13°C° 0 mm 3 mps 694 mmHg 19%

1 February, Monday

Time Temperature Precipitation Wind Pressure Humidity
00:00 +13°C° 0 mm 3 mps 694 mmHg 21%
01:00 +12°C° 0 mm 3 mps 694 mmHg 22%
02:00 +12°C° 0 mm 3 mps 694 mmHg 23%
03:00 +11°C° 0 mm 3 mps 693 mmHg 24%
04:00 +11°C° 0 mm 3 mps 693 mmHg 25%
05:00 +10°C° 0 mm 3 mps 693 mmHg 26%
06:00 +10°C° 0 mm 3 mps 693 mmHg 27%
07:00 +11°C° 0 mm 3 mps 693 mmHg 26%
08:00 +12°C° 0 mm 3 mps 694 mmHg 25%
09:00 +13°C° 0 mm 3 mps 694 mmHg 23%
10:00 +17°C° 0 mm 3 mps 694 mmHg 21%
11:00 +19°C° 0 mm 3 mps 695 mmHg 19%
12:00 +21°C° 0 mm 3 mps 695 mmHg 17%
13:00 +23°C° 0 mm 2 mps 694 mmHg 16%
14:00 +24°C° 0 mm 2 mps 694 mmHg 16%
15:00 +26°C° 0 mm 1 mps 693 mmHg 16%
16:00 +25°C° 0 mm 1 mps 693 mmHg 18%
17:00 +24°C° 0 mm 1 mps 693 mmHg 19%
18:00 +22°C° 0 mm 1 mps 693 mmHg 21%
19:00 +22°C° 0 mm 1 mps 693 mmHg 22%
20:00 +21°C° 0 mm 1 mps 693 mmHg 24%
21:00 +20°C° 0 mm 1 mps 693 mmHg 25%
22:00 +19°C° 0 mm 1 mps 693 mmHg 26%
23:00 +18°C° 0 mm 1 mps 693 mmHg 28%

2 February, Tuesday

Time Temperature Precipitation Wind Pressure Humidity
00:00 +17°C° 0 mm 2 mps 693 mmHg 29%
01:00 +16°C° 0 mm 2 mps 693 mmHg 30%
02:00 +16°C° 0 mm 2 mps 692 mmHg 31%
03:00 +16°C° 0 mm 2 mps 692 mmHg 32%
04:00 +15°C° 0 mm 1 mps 692 mmHg 33%
05:00 +15°C° 0 mm 1 mps 692 mmHg 34%
06:00 +15°C° 0 mm 1 mps 692 mmHg 35%
07:00 +16°C° 0 mm 1 mps 692 mmHg 32%
08:00 +19°C° 0 mm 1 mps 693 mmHg 28%
09:00 +21°C° 0 mm 1 mps 694 mmHg 25%
10:00 +22°C° 0 mm 1 mps 694 mmHg 25%
11:00 +24°C° 0 mm 1 mps 694 mmHg 24%
12:00 +25°C° 0 mm 2 mps 694 mmHg 23%
13:00 +26°C° 0 mm 3 mps 694 mmHg 23%
14:00 +27°C° 0 mm 3 mps 693 mmHg 23%
15:00 +28°C° 0 mm 4 mps 693 mmHg 22%
16:00 +27°C° 0 mm 4 mps 693 mmHg 26%
17:00 +26°C° 0 mm 5 mps 692 mmHg 29%
18:00 +25°C° 0 mm 5 mps 692 mmHg 32%
19:00 +22°C° 0 mm 4 mps 692 mmHg 45%
20:00 +21°C° 0 mm 3 mps 692 mmHg 59%
21:00 +20°C° 0 mm 2 mps 693 mmHg 72%
22:00 +19°C° 0 mm 2 mps 693 mmHg 76%
23:00 +18°C° 0 mm 2 mps 692 mmHg 80%
Show more